"Pseudo-MPEC" for XE9C2B4

Created 2016 Apr 11 20:29:02 UT using Find_Orb

Astrometry:
     XE9C2B4  C2016 03 03.38898 11 13 05.38 +19 02 28.9          20.6 V D0543G96
     XE9C2B4  C2016 03 03.38922 11 13 08.70 +19 02 16.0          19.8 V D0543G96
     XE9C2B4  C2016 03 03.38946 11 13 11.90 +19 02 04.1          19.9 V D0543G96
     XE9C2B4  C2016 03 03.38971 11 13 14.93 +19 01 52.5          19.6 V D0543G96
     XE9C2B4  C2016 03 03.39907 11 15 21.46 +18 53 47.2          19.6 V D0543G96
     XE9C2B4  C2016 03 03.39931 11 15 24.69 +18 53 34.7          19.1 V D0543G96
     XE9C2B4  C2016 03 03.39955 11 15 28.00 +18 53 21.9          19.4 V D0543G96
     XE9C2B4  C2016 03 03.39980 11 15 31.37 +18 53 08.7          19.8 V D0543G96
     XE9C2B4  C2016 03 03.45583 11 28 35.06 +17 57 14.5          18.9 V D0543G96
     XE9C2B4  C2016 03 03.45605 11 28 37.81 +17 57 02.0         x19.4 V D0543G96
     XE9C2B4  C2016 03 03.45627 11 28 41.19 +17 56 46.5          18.8 V D0543G96
     XE9C2B4  C2016 03 03.45649 11 28 44.42 +17 56 31.6          19.5 V D0543G96
     XE9C2B4  C2016 03 03.46557 11 30 58.13 +17 46 13.2          19.3 V D0543G96
     XE9C2B4  C2016 03 03.46578 11 31 01.52 +17 45 57.3          18.2 V D0543G96
     XE9C2B4  C2016 03 03.46600 11 31 04.36 +17 45 43.9          19.1 V D0543G96
     XE9C2B4  C2016 03 03.46621 11 31 07.58 +17 45 28.8          19.0 V D0543G96

Station data:
(G96) Mt. Lemmon Survey (N32.44287 W110.78872)  US/Arizona.   Observers E. J.
    Christensen, A. R. Gibbs, A. D. Grauer, R. E. Hill, J. A. Johnson, R. A.
    Kowalski, S. M. Larson, F. C. Shelly.  1.5-m reflector + CCD.

Orbital elements:  XE9C2B4
   Perigee 2016 Mar 2.735631 +/- 0.00899 TT = 17:39:18 (JD 2457450.235631)
Epoch 2016 Mar  3.0 TT = JDT 2457450.5                        Find_Orb
M  75.562636 +/- 1.8                (J2000 equatorial)
n 285.823125837 +/- 2.98            Peri.  290.312353 +/- 0.24
a 49265.01241 +/- 343               Node    56.206399 +/- 0.049
e   0.69580941 +/- 0.00359          Incl.   21.799185 +/- 0.025
P   1.26d                  H 35.1   G  0.15   U 13.5  
q 14985.95297 +/- 283    Q 83544.07184 +/- 408
15 of 16 observations 2016 Mar. 3 (1.9 hr); mean residual 1".985
Residuals in arcseconds: 
160303 G96 1.20- .655+    160303 G96 2.39+ .569-    160303 G96 1.35+ .249-    
160303 G96 .227+ .161-    160303 G96 2.20+ .524-    160303 G96 5.37+ 1.65-    
160303 G96 .052- .037+    160303 G96 .559- .083+    160303 G96 .590- .160+    
160303 G96 4.65- 1.05+    160303 G96(7.02- 2.26+)   160303 G96 .974+ .415-    
160303 G96 1.72+ .655-    160303 G96 4.51- 1.45+    
160303 G96 1.49+ .469-    160303 G96 4.15- 1.25+    

Ephemerides (geocentric):
Date (UTC) HH   RA              Dec         delta   r     elong  mag " sig PA
---- -- -- --  ------------   ------------  ------ ------ -----  --- ---- ---
2016 03 03 00  08 56 29.762   +21 21 42.33   62439 0.9917 147.7 19.5 1093  86
2016 03 03 01  09 17 40.490   +21 39 43.60   67249 0.9918 152.0 19.6  756  88
2016 03 03 02  09 36 16.057   +21 47 12.89   71348 0.9918 155.6 19.6  524  90
2016 03 03 03  09 53 00.151   +21 47 17.08   74792 0.9919 158.6 19.6  359  93
2016 03 03 04  10 08 22.554   +21 41 46.74   77626 0.9919 161.1 19.6  240  95
2016 03 03 05  10 22 44.698   +21 31 48.88   79882 0.9919 163.1 19.6  153  98
2016 03 03 06  10 36 22.801   +21 18 03.66   81586 0.9920 164.6 19.6   90 102
2016 03 03 07  10 49 29.758   +21 00 53.43   82755 0.9920 165.6 19.6   45 109
2016 03 03 08  11 02 16.368   +20 40 27.64   83401 0.9920 166.0 19.6   17 134
2016 03 03 09  11 14 52.190   +20 16 45.39   83530 0.9920 165.7 19.6   11  35
2016 03 03 10  11 27 26.202   +19 49 36.31   83143 0.9920 165.0 19.6   16  63
2016 03 03 11  11 40 07.384   +19 18 40.36   82237 0.9920 163.7 19.7   15  63
2016 03 03 12  11 53 05.306   +18 43 26.28   80803 0.9920 161.9 19.7    9  27
2016 03 03 13  12 06 30.820   +18 03 08.65   78825 0.9920 159.7 19.7   18 130
2016 03 03 14  12 20 36.985   +17 16 42.68   76284 0.9920 157.2 19.7   46 114
2016 03 03 15  12 35 40.442   +16 22 35.57   73150 0.9920 154.2 19.7   86 110
2016 03 03 16  12 52 03.613   +15 18 31.60   69384 0.9919 150.8 19.7  141 109
2016 03 03 17  13 10 18.507   +14 01 05.67   64937 0.9919 146.8 19.7  213 109
2016 03 03 18  13 31 13.851   +12 24 53.14   59743 0.9919 142.0 19.6  312 109
2016 03 03 19  13 56 09.744   +10 20 47.71   53714 0.9918 136.0 19.5  449 110
2016 03 03 20  14 27 31.577   +07 32 12.71   46740 0.9918 128.3 19.5  649 111
2016 03 03 21  15 10 22.345   +03 25 27.57   38687 0.9917 117.4 19.4  967 112
2016 03 03 22  16 17 39.638   -03 16 22.45   29481 0.9916 100.0 19.3 1524 111
2016 03 03 23  18 34 55.287   -15 07 52.89   19738 0.9916  65.3 20.1 2472 106
2016 03 04 00  00 04 08.871   -18 10 01.96   15124 0.9915  19.6 26?? 1021  77
2016 03 04 01  04 17 48.174   +03 18 02.95   22315 0.9916  80.0 19.6 1692  68
2016 03 04 02  06 07 49.877   +13 10 09.49   32105 0.9917 107.9 19.3 1991  72
2016 03 04 03  07 10 30.691   +17 22 34.04   41003 0.9918 123.0 19.3 1940  76
2016 03 04 04  07 53 12.710   +19 28 37.83   48749 0.9919 132.8 19.4 1858  80
2016 03 04 05  08 25 26.355   +20 37 30.81   55453 0.9920 139.9 19.5 1786  82
2016 03 04 06  08 51 24.403   +21 16 12.82   61245 0.9920 145.4 19.6 1727  85
2016 03 04 07  09 13 18.232   +21 37 05.30   66228 0.9921 149.9 19.6 1680  87
2016 03 04 08  09 32 24.104   +21 46 28.52   70484 0.9921 153.6 19.6 1643  88
2016 03 04 09  09 49 30.075   +21 47 53.81   74073 0.9922 156.8 19.7 1614  90
2016 03 04 10  10 05 08.472   +21 43 25.09   77043 0.9922 159.5 19.7 1592  91
2016 03 04 11  10 19 42.284   +21 34 17.20   79429 0.9922 161.7 19.7 1577  93
2016 03 04 12  10 33 28.709   +21 21 15.25   81257 0.9923 163.4 19.6 1569  94
2016 03 04 13  10 46 41.270   +21 04 44.99   82547 0.9923 164.7 19.6 1566  95
2016 03 04 14  10 59 31.149   +20 44 58.46   83311 0.9923 165.5 19.6 1571  96
2016 03 04 15  11 12 08.119   +20 21 56.89   83558 0.9923 165.6 19.6 1583  98
2016 03 04 16  11 24 41.233   +19 55 32.04   83290 0.9923 165.2 19.6 1604  99
2016 03 04 17  11 37 19.411   +19 25 26.14   82503 0.9923 164.2 19.6 1636 100
2016 03 04 18  11 50 12.024   +18 51 10.68   81191 0.9923 162.8 19.7 1680 101
2016 03 04 19  12 03 29.550   +18 12 03.84   79339 0.9923 160.9 19.7 1742 102
2016 03 04 20  12 17 24.431   +17 27 05.92   76930 0.9923 158.5 19.7 1826 103
2016 03 04 21  12 32 12.316   +16 34 51.59   73934 0.9923 155.8 19.7 1940 104
2016 03 04 22  12 48 14.024   +15 33 16.87   70317 0.9923 152.5 19.7 2100 105
2016 03 04 23  13 05 58.870   +14 19 15.98   66031 0.9922 148.7 19.6 2326 106
2016 03 05 00  13 26 10.796   +12 47 58.37   61015 0.9922 144.2 19.6 2661 108
2016 03 05 01  13 50 00.666   +10 51 22.69   55186 0.9922 138.6 19.5 3179 109
2016 03 05 02  14 19 33.892   +08 15 08.64   48438 0.9921 131.4 19.5 4047 110
2016 03 05 03  14 59 02.515   +04 30 57.55   40643 0.9920 121.5 19.4 5668 111
2016 03 05 04  15 58 38.092   -01 24 13.67   31692 0.9920 106.1 19.3 9268 112
2016 03 05 05  17 51 27.669   -11 52 39.11   21888 0.9919  77.2 19.7 326' 108
2016 03 05 06  22 35 27.460   -21 18 45.59   15031 0.9918  16.9 27?? 758'  85
2016 03 05 07  03 38 44.675   -00 34 13.87   20131 0.9919  68.6 20.0 506'  68
2016 03 05 08  05 48 52.690   +11 40 42.19   29910 0.9920 102.0 19.3 249'  71
2016 03 05 09  06 58 46.073   +16 41 58.86   39073 0.9921 119.0 19.3 9453  76
2016 03 05 10  07 44 52.228   +19 07 43.49   47079 0.9922 129.6 19.4 6995  79
2016 03 05 11  08 18 59.899   +20 26 05.00   54011 0.9923 137.2 19.5 5669  82